Overview Statistics Trail Chart Weather Telemetry Raw packets
 

This is the latest recevied weather packets stored in our database for station/object NB9X. If no packets are shown the sender has not sent any weather packets the latest 10 day(s).

<< 95 96 97 98 99 100 101 >>
Time Temp. Humidity Pressure Rain* Wind** Luminosity Snow
1787945975 27.22° C 100% 1015.7 hPa 0 mm - - -
1787945675 27.22° C 100% 1015.8 hPa 0 mm - - -
1787945375 27.22° C 100% 1015.8 hPa 0 mm - - -
1787945075 27.78° C 100% 1015.9 hPa 0 mm - - -
1787944775 28.33° C 100% 1015.9 hPa 0 mm - - -
1787944475 30° C 100% 1015.8 hPa 0 mm - - -
1787944175 29.44° C 100% 1015.7 hPa 0 mm - - -
1787943875 30° C 100% 1015.6 hPa 0 mm - - -
1787943575 32.22° C 100% 1015.5 hPa 0 mm - - -
1787943275 33.89° C 100% 1015.5 hPa 0 mm - - -
1787942975 35° C 100% 1015.5 hPa 0 mm - - -
1787942675 34.44° C 100% 1015.5 hPa 0 mm - - -
1787942375 34.44° C 100% 1015.6 hPa 0 mm - - -
1787942075 33.89° C 100% 1015.8 hPa 0 mm - - -
1787941775 34.44° C 100% 1015.8 hPa 0 mm - - -
1787941475 34.44° C 100% 1016 hPa 0 mm - - -
1787941175 33.89° C 100% 1016.1 hPa 0 mm - - -
1787940875 34.44° C 100% 1016.1 hPa 0 mm - - -
1787940575 33.89° C 100% 1016.2 hPa 0 mm - - -
1787940275 33.89° C 100% 1016.2 hPa 0 mm - - -
1787939975 33.33° C 100% 1016.4 hPa 0 mm - - -
1787939675 33.89° C 100% 1016.6 hPa 0 mm - - -
1787939380 33.89° C 100% 1016.6 hPa 0 mm - - -
1787939075 33.33° C 100% 1016.6 hPa 0 mm - - -
1787938775 33.33° C 100% 1016.6 hPa 0 mm - - -

* Rain latest hour (hover to see other rain measurements)
** Current wind speed in m/s (hover to see current wind gust speed)